sat.trackr.live / text

‹ back to catalog

STARLINK-32303

NORAD 61912 · 2024-207A

PAYLOAD ACTIVE UNKNOWN

§ Identity

Operator
Country
US
Launch date
2024-11-11
Launch site
AFETR
Launch vehicle
Mass (kg)
RCS (m²)

Purposes: comms

External: N2YO · Heavens-Above · Gunter

§ Orbital elements

Epoch: 2026-09-21T07:58:50.782944Z

Period
94.27 min
Inclination
42.9997°
Eccentricity
0.0001211
Mean motion
15.27576665 rev/d
Perigee alt
482.2 km
Apogee alt
483.9 km
Semi-major
6,861.2 km
B*
2.2787e-4
RAAN
256.8118°
Arg perigee
279.0008°
Mean anomaly
81.0706°
Rev number
10,523

§ Raw data

STARLINK-323031 61912U 24207A   26264.33253221  .00006013  00000+0  22787-3 0  99932 61912  42.9997 256.8118 0001211 279.0008  81.0706 15.27576665105236

JSON: /api/v1/satellites/61912 · /tle

For live sub-satellite position, see the globe view (requires WebGL).

§ Visibility from observer

Set your observer location to see the next 7 days of passes ≥ 10°. The values pass through the URL so the page stays shareable.

No JS? Fill the form by hand. The geolocation button needs JavaScript.